sat.trackr.live / text

‹ back to catalog

ONEWEB-0275

NORAD 48993 · 2021-060AC

PAYLOAD ACTIVE UNKNOWN

§ Identity

Operator
Country
UK
Launch date
2021-07-01
Launch site
VOSTO
Launch vehicle
Mass (kg)
RCS (m²)

Purposes: comms

External: N2YO · Heavens-Above · Gunter

§ Orbital elements

Epoch: 2026-05-25T04:51:22.463712Z

Period
109.37 min
Inclination
87.9106°
Eccentricity
0.0002006
Mean motion
13.16593182 rev/d
Perigee alt
1,196.2 km
Apogee alt
1,199.3 km
Semi-major
7,575.9 km
B*
6.1729e-5
RAAN
233.3385°
Arg perigee
97.1479°
Mean anomaly
262.9880°
Rev number
23,653

§ Raw data

ONEWEB-02751 48993U 21060AC  26145.20234333  .00000036  00000+0  61729-4 0  99972 48993  87.9106 233.3385 0002006  97.1479 262.9880 13.16593182236531

JSON: /api/v1/satellites/48993 · /tle

For live sub-satellite position, see the globe view (requires WebGL).

§ Visibility from observer

Set your observer location to see the next 7 days of passes ≥ 10°. The values pass through the URL so the page stays shareable.

No JS? Fill the form by hand. The geolocation button needs JavaScript.